Hourly Weather Roundup
Issued by NWS

Home | Current Version | Previous Version | Text Only | Print | Product List | Glossary On
Versions: 1 2 3 4 5 6 7 8 9 10 11 12 13 14 15 16 17 18 19 20 21 22 23 24 25 26 27 28 29 30 31 32 33 34 35 36 37 38 39 40 41 42 43 44 45 46 47 48 49 50
690
NZUS43 KILX 280510
HWRCRS

CRS HOURLY WEATHER ROUNDUP
NATIONAL WEATHER SERVICE, LINCOLN IL
1200 AM CDT THU JUL 28 2016


CITY           SKY/WX    TMP DP  RH WIND       PRES   REMARKS
CHAMPAIGN      PTCLDY    73  69  87 E3        29.95F
LAWRENCEVILLE  CLOUDY    77  74  90 CALM      29.94S
PEORIA         CLOUDY    76  70  82 S7        29.94S
SPRINGFIELD    MOCLDY    78  74  87 SE3       29.94S HX  81
$$


CITY           SKY/WX    TMP DP  RH WIND       PRES   REMARKS
BLOOMINGTON    CLOUDY    75  70  84 SE7       29.96F
DECATUR        PTCLDY    74  71  91 E5        29.94F
EFFINGHAM      CLOUDY    75  75 100 CALM      29.96S FOG
FLORA          MOCLDY    78  76  95 CALM      29.95R HX  80
GALESBURG      CLEAR     74  70  89 CALM      29.94S
JACKSONVILLE   TSTM      72  65  79 SW7       29.92F
LACON          MOCLDY    74  70  87 SW3       29.92F
LINCOLN        CLOUDY    75  73  95 CALM      29.94S
LITCHFIELD     NOT AVBL

CITY           SKY/WX    TMP DP  RH WIND       PRES   REMARKS
MACOMB         CLEAR     71  69  94 CALM      29.96S
MATTOON        PTCLDY    76  72  87 CALM      29.95S
MOLINE         PTCLDY    75  68  78 CALM      29.93R
OLNEY          CLOUDY    73  73 100 CALM      29.95S FOG
PARIS          MOCLDY    71  71  99 CALM      29.96S
PONTIAC        NOT AVBL
QUINCY         CLEAR     72  69  90 SE8       29.92F
RANTOUL        NOT AVBL
ROBINSON       CLOUDY    75  73  96 CALM      29.95S
TAYLORVILLE    PTCLDY    75  74  98 MISG      29.94F
TERRE HAUTE    MOCLDY    75  71  87 CALM      29.95S
$$


CITY           SKY/WX    TMP DP  RH WIND       PRES   REMARKS
BURLINGTON     PTCLDY    75  73  93 N3        29.93S
CHICAGO        PTCLDY    77  64  64 E5        29.94F
DES MOINES     PTCLDY    75  68  78 CALM      29.95S
EVANSVILLE     CLOUDY    75  74  96 CALM      29.94S FOG
INDIANAPOLIS   CLOUDY    80  65  59 NE5       29.96R HX  82
KANSAS CITY    PTCLDY    78  71  79 SE3       29.96F HX  80
MILWAUKEE      MOCLDY    73  68  84 SE3       29.95S
ST LOUIS       MOCLDY    81  71  71 E7        29.94S HX  85
$$





USA.gov is the U.S. government's official web portal to all federal, state and local government web resources and services.